www.srh.weather.gov   
NOAA logo - Click to go to the NOAA homepage   NWS logo
Hourly Weather Roundup
Enter Your "City, ST" or zip code   
Current Version              Previous Version:    01  02  03  04  05  06  07  08  09  10  11  12  13  14  15  16  17  18  19  20  21  22  23  24  25  26  27  28  29  30  
   31  32  33  34  35  36  37  38  39  40  41  42  43  44  45  46  47  48  49  50  51  52  53  54  55  56  57  58  59  60  
[Printable]
959
NZUS43 KILX 181010
HWRILX

AREA WEATHER ROUNDUP
NATIONAL WEATHER SERVICE, LINCOLN IL
500 AM CDT FRI APR 18 2014


CITY           SKY/WX    TMP DP  RH WIND       PRES   REMARKS
BLOOMINGTON    CLOUDY    45  35  67 NW3       30.29R
CHAMPAIGN      PTCLDY    44  38  79 CALM      30.27R
DANVILLE       CLOUDY    46  40  78 CALM      30.24R
DECATUR        PTCLDY    45  38  76 N9        30.28R
FLORA          NOT AVBL
GALESBURG      CLEAR     30  30 100 N3        30.29R
JACKSONVILLE   MOCLDY    43  37  80 CALM      30.30R
LACON          CLEAR     38  35  89 CALM      30.27S
LAWRENCEVILLE  FOG       44  42  93 CALM      30.27R VSB 1
LITCHFIELD     PTCLDY    41  38  89 CALM      30.28R
$$


CITY           SKY/WX    TMP DP  RH WIND       PRES   REMARKS
LINCOLN        CLOUDY    43  39  86 CALM      30.29S
MACOMB         CLEAR     34  32  92 NW5       30.31R WCI  30
MATTOON        CLOUDY    46  41  82 N8        30.26R
MT CARMEL AP   PTCLDY    45  41  87 CALM      30.26S
OLNEY-NOBLE AP CLOUDY    45  41  87 CALM      30.27R
PARIS          CLOUDY    46  41  81 CALM      30.27S
PEORIA         CLEAR     43  34  70 CALM      30.29R
PONTIAC        CLOUDY    45  39  81 NW5       30.28R
RANTOUL        MOCLDY    48  39  71 CALM      30.28R
ROBINSON       MOCLDY    46  44  93 CALM      30.27S
SPRINGFIELD    PTCLDY    43  37  79 CALM      30.30R
TAYLORVILLE    PTCLDY    41  36  81 N6        30.28R
$$

...REGIONAL REPORTS...


CITY           SKY/WX    TMP DP  RH WIND       PRES   REMARKS
CHICAGO O`HARE CLEAR     42  34  73 N7        30.26R
KANKAKEE       MOCLDY    45  42  89 CALM      30.28R
MOLINE         CLEAR     33  29  85 CALM      30.31R
MOUNT VERNON   CLOUDY    45  34  65 CALM      30.27R
PITTSFIELD     CLEAR     40  37  90 W3        30.30R FOG
QUINCY         CLEAR     38  33  82 NW5       30.29R WCI  34
ROCKFORD       PTCLDY    36  31  82 N8        30.31R WCI  30
$$


CITY           SKY/WX    TMP DP  RH WIND       PRES   REMARKS
BURLINGTON     CLEAR     36  32  85 N5        30.30R WCI  32
CEDAR RAPIDS   CLEAR     29  28  96 CALM      30.30R
DES MOINES     CLEAR     35  29  78 E5        30.31R WCI  31
KIRKSVILLE     FOG       31  29  92 CALM      30.30R VSB 1
OTTUMWA        CLEAR     30  27  88 E5        30.31R WCI  25
ST LOUIS       PTCLDY    47  38  71 N5        30.29R
$$


CITY           SKY/WX    TMP DP  RH WIND       PRES   REMARKS
TERRE HAUTE    MOCLDY    45  40  82 CALM      30.26R
EVANSVILLE     CLEAR     45  39  79 CALM      30.27S
INDIANAPOLIS   PTCLDY    42  35  76 NW7       30.27R
LAFAYETTE      CLOUDY    46  41  82 CALM      30.26R
MADISON        CLEAR     27  26  96 CALM      30.32R FOG
MILWAUKEE      PTCLDY    38  31  76 N5        30.30R WCI  34
$$





National Weather Service
Disclaimer
Last Modified: August 31, 2005
Privacy Policy